TimeCST,TemperatureF,Dew PointF,Humidity,Sea Level PressureIn,VisibilityMPH,Wind Direction,Wind SpeedMPH,Gust SpeedMPH,PrecipitationIn,Events,Conditions,WindDirDegrees,DateUTC
12:15 AM,21.2,14.0,74,29.68,10.0,ESE,10.4,-,N/A,,Mostly Cloudy,120,2013-02-18 06:15:00
12:35 AM,21.2,14.0,74,29.66,10.0,ESE,11.5,17.3,N/A,,Overcast,120,2013-02-18 06:35:00
12:55 AM,21.2,14.0,74,29.66,10.0,SE,11.5,-,N/A,,Mostly Cloudy,140,2013-02-18 06:55:00
1:15 AM,21.2,14.0,74,29.64,10.0,ESE,11.5,-,N/A,,Scattered Clouds,120,2013-02-18 07:15:00
1:35 AM,21.2,14.0,74,29.63,10.0,SE,9.2,18.4,N/A,,Clear,130,2013-02-18 07:35:00
1:55 AM,21.2,14.0,74,29.62,10.0,SE,9.2,-,N/A,,Clear,130,2013-02-18 07:55:00
2:15 AM,21.2,14.0,74,29.61,10.0,ESE,8.1,-,N/A,,Clear,120,2013-02-18 08:15:00
2:35 AM,21.2,14.0,74,29.59,10.0,SE,10.4,-,N/A,,Clear,130,2013-02-18 08:35:00
2:55 AM,21.2,14.0,74,29.59,10.0,SE,6.9,-,N/A,,Clear,130,2013-02-18 08:55:00
3:15 AM,21.2,14.0,74,29.58,10.0,ESE,8.1,-,N/A,,Clear,120,2013-02-18 09:15:00
3:35 AM,21.2,14.0,74,29.58,10.0,SE,6.9,-,N/A,,Clear,130,2013-02-18 09:35:00
3:55 AM,19.4,14.0,80,29.57,10.0,SE,8.1,-,N/A,,Clear,130,2013-02-18 09:55:00
4:15 AM,21.2,15.8,80,29.57,10.0,SE,6.9,-,N/A,,Clear,130,2013-02-18 10:15:00
4:35 AM,21.2,15.8,80,29.55,10.0,SE,8.1,-,N/A,,Clear,130,2013-02-18 10:35:00
4:55 AM,21.2,17.6,86,29.55,10.0,SE,6.9,-,N/A,,Clear,130,2013-02-18 10:55:00
5:15 AM,21.2,17.6,86,29.54,10.0,SE,9.2,-,N/A,,Clear,130,2013-02-18 11:15:00
5:35 AM,23.0,17.6,80,29.54,10.0,SE,10.4,-,N/A,,Scattered Clouds,130,2013-02-18 11:35:00
5:55 AM,23.0,17.6,80,29.54,10.0,SE,8.1,-,N/A,,Mostly Cloudy,140,2013-02-18 11:55:00
6:15 AM,23.0,17.6,80,29.53,10.0,SE,8.1,-,N/A,,Overcast,140,2013-02-18 12:15:00
6:35 AM,23.0,19.4,86,29.53,10.0,SE,9.2,-,N/A,,Overcast,140,2013-02-18 12:35:00
6:55 AM,23.0,19.4,86,29.52,10.0,SE,9.2,-,N/A,,Overcast,140,2013-02-18 12:55:00
7:15 AM,23.0,19.4,86,29.52,10.0,SE,6.9,-,N/A,,Overcast,140,2013-02-18 13:15:00
7:35 AM,23.0,19.4,86,29.52,10.0,SE,5.8,-,N/A,,Overcast,130,2013-02-18 13:35:00
7:55 AM,24.8,19.4,80,29.51,10.0,SE,6.9,-,N/A,,Overcast,130,2013-02-18 13:55:00
8:15 AM,24.8,19.4,80,29.52,10.0,SE,5.8,-,N/A,,Overcast,140,2013-02-18 14:15:00
8:35 AM,26.6,21.2,80,29.52,10.0,SSE,4.6,-,N/A,,Overcast,160,2013-02-18 14:35:00
8:55 AM,26.6,21.2,80,29.51,10.0,SSE,6.9,-,N/A,,Overcast,150,2013-02-18 14:55:00
9:15 AM,26.6,21.2,80,29.51,10.0,SSE,5.8,-,N/A,,Overcast,160,2013-02-18 15:15:00
9:35 AM,26.6,23.0,86,29.51,10.0,SSE,6.9,-,N/A,,Overcast,160,2013-02-18 15:35:00
9:55 AM,28.4,23.0,80,29.51,10.0,South,5.8,-,N/A,,Overcast,180,2013-02-18 15:55:00
10:15 AM,28.4,23.0,80,29.50,10.0,South,8.1,-,N/A,,Overcast,180,2013-02-18 16:15:00
10:35 AM,30.2,23.0,75,29.50,10.0,South,5.8,-,N/A,,Overcast,190,2013-02-18 16:35:00
10:55 AM,30.2,24.8,80,29.49,10.0,South,3.5,-,N/A,,Overcast,170,2013-02-18 16:55:00
11:15 AM,30.2,26.6,86,29.51,10.0,SSW,6.9,-,N/A,,Overcast,210,2013-02-18 17:15:00
11:35 AM,32.0,26.6,80,29.51,10.0,SW,8.1,-,N/A,,Overcast,230,2013-02-18 17:35:00
11:55 AM,32.0,28.4,87,29.50,10.0,WSW,8.1,-,N/A,,Overcast,250,2013-02-18 17:55:00
12:15 PM,32.0,28.4,87,29.49,10.0,West,8.1,-,N/A,,Overcast,270,2013-02-18 18:15:00
12:35 PM,32.0,28.4,87,29.48,7.0,West,11.5,-,N/A,,Overcast,270,2013-02-18 18:35:00
12:55 PM,32.0,28.4,87,29.47,7.0,WNW,10.4,-,N/A,,Overcast,290,2013-02-18 18:55:00
1:15 PM,32.0,28.4,87,29.48,5.0,West,11.5,-,N/A,,Haze,270,2013-02-18 19:15:00
1:35 PM,32.0,28.4,87,29.48,5.0,WNW,11.5,-,N/A,,Haze,290,2013-02-18 19:35:00
1:55 PM,32.0,28.4,87,29.49,5.0,West,13.8,-,N/A,,Overcast,280,2013-02-18 19:55:00
2:15 PM,32.0,26.6,80,29.50,7.0,WNW,11.5,-,N/A,,Overcast,300,2013-02-18 20:15:00
2:35 PM,30.2,26.6,86,29.50,7.0,WNW,10.4,-,N/A,,Overcast,300,2013-02-18 20:35:00
2:55 PM,30.2,26.6,86,29.51,7.0,NW,9.2,-,N/A,,Overcast,310,2013-02-18 20:55:00
3:15 PM,30.2,26.6,86,29.52,5.0,WNW,12.7,-,N/A,,Overcast,290,2013-02-18 21:15:00
3:35 PM,30.2,26.6,86,29.52,4.0,WNW,12.7,-,N/A,,Overcast,290,2013-02-18 21:35:00
3:55 PM,30.2,24.8,80,29.53,7.0,West,15.0,-,N/A,,Overcast,280,2013-02-18 21:55:00
4:15 PM,28.4,23.0,80,29.54,10.0,West,16.1,20.7,N/A,,Overcast,280,2013-02-18 22:15:00
4:35 PM,28.4,23.0,80,29.54,10.0,WNW,16.1,23.0,N/A,,Overcast,290,2013-02-18 22:35:00
5:15 PM,26.6,21.2,80,29.56,10.0,WNW,16.1,23.0,N/A,,Overcast,290,2013-02-18 23:15:00
5:35 PM,26.6,23.0,86,29.56,5.0,WNW,8.1,-,N/A,,Overcast,300,2013-02-18 23:35:00
5:55 PM,24.8,21.2,86,29.56,5.0,WNW,12.7,17.3,N/A,,Overcast,290,2013-02-18 23:55:00
6:15 PM,23.0,21.2,93,29.57,7.0,WNW,16.1,-,N/A,,Overcast,290,2013-02-19 00:15:00
6:35 PM,23.0,19.4,86,29.57,7.0,WNW,17.3,21.9,N/A,,Overcast,290,2013-02-19 00:35:00
6:55 PM,23.0,19.4,86,29.57,10.0,WNW,18.4,23.0,N/A,,Overcast,300,2013-02-19 00:55:00
7:15 PM,21.2,19.4,93,29.58,10.0,WNW,12.7,-,N/A,,Overcast,300,2013-02-19 01:15:00
7:35 PM,21.2,19.4,93,29.58,5.0,NW,19.6,24.2,N/A,,Overcast,310,2013-02-19 01:35:00
7:55 PM,21.2,17.6,86,29.59,5.0,NW,17.3,21.9,N/A,,Overcast,310,2013-02-19 01:55:00
8:15 PM,19.4,17.6,93,29.60,5.0,NW,18.4,24.2,N/A,,Overcast,310,2013-02-19 02:15:00
8:35 PM,19.4,14.0,80,29.60,7.0,NW,19.6,24.2,N/A,,Overcast,310,2013-02-19 02:35:00
8:55 PM,17.6,14.0,86,29.59,7.0,NW,16.1,20.7,N/A,Snow,Light Snow,310,2013-02-19 02:55:00
9:15 PM,17.6,12.2,79,29.60,2.0,NW,18.4,27.6,N/A,Snow,Light Snow,320,2013-02-19 03:15:00
9:35 PM,17.6,12.2,79,29.61,3.0,NW,12.7,24.2,N/A,Snow,Light Snow,320,2013-02-19 03:35:00
9:55 PM,15.8,12.2,86,29.61,5.0,NW,15.0,18.4,N/A,Snow,Light Snow,320,2013-02-19 03:55:00
10:15 PM,14.0,10.4,86,29.61,5.0,NW,16.1,26.5,N/A,Snow,Light Snow,320,2013-02-19 04:15:00
10:35 PM,14.0,10.4,86,29.61,5.0,NW,18.4,25.3,N/A,Snow,Light Snow,320,2013-02-19 04:35:00
10:55 PM,14.0,8.6,79,29.62,5.0,NW,18.4,26.5,N/A,Snow,Light Snow,320,2013-02-19 04:55:00
11:15 PM,14.0,8.6,79,29.64,5.0,NW,16.1,21.9,N/A,Snow,Light Snow,310,2013-02-19 05:15:00
11:35 PM,12.2,8.6,85,29.64,5.0,NW,10.4,20.7,N/A,Snow,Light Snow,320,2013-02-19 05:35:00
11:55 PM,12.2,8.6,85,29.66,7.0,NNW,21.9,27.6,N/A,Snow,Light Snow,330,2013-02-19 05:55:00